EW0638 Weather Reports


time (UTC)temp
C
wind
direction
speed
KPH
gust
KPH
rain 1hr
cm
rain 24hr
cm
rain mn
cm
humidity
%
barometer
mb
20260906110040 22 344 3.2 9.7 0.00 0.00 0.00 96 1015.1
20260906104521 21 329 3.2 9.7 0.00 0.00 0.00 96 1015.0
20260906103021 21 303 4.8 9.7 0.00 0.00 0.00 96 1015.0
20260906101505 21 307 4.8 11.3 0.00 0.00 0.00 96 1014.9
20260906100003 21 321 6.4 11.3 0.00 0.00 0.00 96 1014.9
20260906094547 21 34 1.6 9.7 0.00 0.00 0.00 96 1014.9
20260906093047 21 331 3.2 8.0 0.00 0.00 0.00 96 1014.7
20260906091527 21 313 3.2 8.0 0.00 0.00 0.00 96 1014.7
20260906090026 21 331 3.2 9.7 0.00 0.00 0.00 96 1014.6
20260906084507 21 320 4.8 8.0 0.00 0.00 0.00 95 1014.6
20260906083012 21 306 4.8 9.7 0.00 0.00 0.00 95 1014.7
20260906081548 21 338 4.8 11.3 0.00 0.00 0.00 95 1014.5
20260906080047 21 319 4.8 9.7 0.00 0.00 0.00 94 1014.5
20260906074538 21 346 6.4 12.9 0.00 0.00 0.00 94 1014.4
20260906073031 22 302 6.4 12.9 0.00 0.00 0.00 93 1014.2
20260906071529 22 348 3.2 14.5 0.00 0.00 0.00 92 1014.3
20260906070027 22 321 4.8 9.7 0.00 0.00 0.00 92 1014.3
20260906064525 22 321 4.8 9.7 0.00 0.00 0.00 91 1014.5
20260906063026 23 311 3.2 8.0 0.00 0.00 0.00 90 1014.7
20260906061524 23 290 3.2 8.0 0.00 0.00 0.00 89 1014.6
20260906060018 23 319 4.8 12.9 0.00 0.00 0.00 88 1014.8
20260906054557 24 332 1.6 8.0 0.00 0.00 0.00 87 1014.7
20260906053106 25 336 1.6 6.4 0.00 0.00 0.00 85 1014.8
20260906051535 25 319 3.2 9.7 0.00 0.00 0.00 84 1014.7
20260906050039 25 320 3.2 9.7 0.00 0.00 0.00 84 1014.6
20260906044513 26 317 4.8 11.3 0.00 0.00 0.00 84 1014.5
20260906043013 26 313 1.6 4.8 0.00 0.00 0.00 83 1014.4
20260906041555 26 327 0.0 4.8 0.00 0.00 0.00 82 1014.1
20260906040046 27 323 4.8 11.3 0.00 0.00 0.00 82 1014.1
20260906034526 27 329 3.2 14.5 0.00 0.00 0.00 82 1014.0
20260906033027 27 299 4.8 12.9 0.00 0.00 0.00 82 1013.9
20260906031505 27 318 6.4 14.5 0.00 0.00 0.00 82 1013.5
20260906030002 28 315 9.7 17.7 0.00 0.00 0.00 81 1013.5
20260906024546 28 326 8.0 12.9 0.00 0.00 0.00 79 1013.3
20260906023050 28 325 6.4 16.1 0.00 0.00 0.00 78 1013.0
20260906021522 29 319 1.6 8.0 0.00 0.00 0.00 76 1012.8
20260906020023 29 336 1.6 6.4 0.00 0.00 0.00 75 1012.7
20260906014507 30 342 1.6 6.4 0.00 0.00 0.00 74 1012.8
20260906013005 30 335 0.0 6.4 0.00 0.00 0.00 72 1012.5
20260906011559 30 332 1.6 6.4 0.00 0.00 0.00 70 1012.3
20260906010047 31 325 0.0 3.2 0.00 0.00 0.00 68 1012.2
20260906004529 31 325 0.0 1.6 0.00 0.00 0.00 67 1012.1
20260906003028 31 325 0.0 3.2 0.00 0.00 0.00 65 1012.1
20260906001517 32 321 0.0 4.8 0.00 0.00 0.00 63 1012.1
20260906000032 32 317 1.6 8.0 0.00 0.00 0.00 62 1012.2
20260905234552 32 347 3.2 6.4 0.00 0.00 0.00 61 1012.1
20260905233052 33 333 1.6 9.7 0.00 0.00 0.00 59 1012.0
20260905231534 33 343 3.2 11.3 0.00 0.00 0.00 57 1011.9
20260905230034 33 338 3.2 9.7 0.00 0.00 0.00 56 1011.8
20260905224516 34 340 6.4 11.3 0.00 0.00 0.00 54 1011.6
20260905223015 35 320 4.8 12.9 0.00 0.00 0.00 52 1011.5
20260905221557 35 311 8.0 12.9 0.00 0.00 0.00 51 1011.6
20260905220059 35 355 4.8 11.3 0.00 0.00 0.00 51 1011.6
20260905214538 35 319 3.2 12.9 0.00 0.00 0.00 51 1011.7
20260905213040 35 313 4.8 11.3 0.00 0.00 0.00 49 1011.8
20260905211520 35 300 1.6 9.7 0.00 0.00 0.00 47 1011.7
20260905210017 35 330 0.0 8.0 0.00 0.00 0.00 45 1012.0
20260905204603 35 303 3.2 9.7 0.00 0.00 0.00 47 1012.3
20260905203057 33 277 1.6 8.0 0.00 0.00 0.00 47 1012.4
20260905201539 31 260 3.2 12.9 0.00 0.00 0.00 55 1012.7
20260905200041 31 276 1.6 11.3 0.00 0.00 0.00 59 1012.9
20260905194520 33 311 4.8 16.1 0.00 0.00 0.00 55 1012.7
20260905193020 35 298 9.7 16.1 0.00 0.00 0.00 51 1012.7
20260905191502 35 319 4.8 11.3 0.00 0.00 0.00 48 1012.7
20260905190001 37 268 4.8 12.9 0.00 0.00 0.00 43 1012.8
20260905184559 37 290 0.0 9.7 0.00 0.00 0.00 45 1012.8
20260905183046 36 335 4.8 11.3 0.00 0.00 0.00 46 1013.0
20260905181522 36 325 3.2 12.9 0.00 0.00 0.00 47 1013.0
20260905180021 35 292 1.6 9.7 0.00 0.00 0.00 47 1013.3
20260905174559 36 316 1.6 12.9 0.00 0.00 0.00 47 1013.4
20260905173110 36 319 1.6 12.9 0.00 0.00 0.00 47 1013.4
20260905171541 36 314 0.0 11.3 0.00 0.00 0.00 47 1013.6
20260905170039 36 341 4.8 12.9 0.00 0.00 0.00 47 1013.9
20260905164519 36 317 4.8 9.7 0.00 0.00 0.00 47 1014.0
20260905163018 36 282 0.0 6.4 0.00 0.00 0.00 49 1014.1
20260905161557 35 310 0.0 6.4 0.00 0.00 0.00 50 1014.1
20260905160055 35 329 1.6 8.0 0.00 0.00 0.00 51 1014.1
20260905154554 35 335 3.2 9.7 0.00 0.00 0.00 53 1014.3
20260905153034 34 329 0.0 8.0 0.00 0.00 0.00 54 1014.3
20260905151514 34 320 1.6 8.0 0.00 0.00 0.00 56 1014.4
20260905150013 33 316 4.8 9.7 0.00 0.00 0.00 57 1014.3
20260905144553 33 330 3.2 6.4 0.00 0.00 0.00 60 1014.3
20260905143050 32 314 0.0 6.4 0.00 0.00 0.00 63 1014.3
20260905141530 32 339 0.0 8.0 0.00 0.00 0.00 65 1014.4
20260905140026 31 300 0.0 4.8 0.00 0.00 0.00 68 1014.6
20260905134508 30 240 0.0 0.0 0.00 0.00 0.00 71 1014.6
20260905133007 28 240 0.0 0.0 0.00 0.00 0.00 75 1014.6
20260905131606 27 240 0.0 3.2 0.00 0.00 0.00 80 1014.6
20260905130057 26 224 0.0 0.0 0.00 0.00 0.00 86 1014.6
20260905124554 24 224 0.0 0.0 0.00 0.00 0.00 95 1014.6
20260905123057 23 224 0.0 0.0 0.00 0.00 0.00 95 1014.6
20260905121555 22 224 0.0 0.0 0.00 0.00 0.00 95 1014.6
20260905120050 22 224 0.0 0.0 0.00 0.00 0.00 94 1014.5
20260905114549 22 224 0.0 0.0 0.00 0.00 0.00 95 1014.4
20260905113044 22 224 0.0 0.0 0.00 0.00 0.00 95 1014.3
20260905111546 21 224 0.0 0.0 0.00 0.00 0.00 94 1014.2